Location: Córrego Montividiu
(13.2496°S, 48.8603°W)
Time: 12:13:09
(UTC+00:00)

SJ 16-02 - Pass Details

Date: 11 March 2026
Orbit: 582 x 593 km, 75.0° (Epoch: 22 April)

Event Time Altitude Azimuth Distance (km) Brightness Sun altitude
Rises 22:22:56 0° 190° (S) 2,818 5.0 -13.2°
Reaches altitude 10° 22:25:10 10° 188° (S) 1,914 4.1 -13.7°
Maximum altitude 22:29:26 76° 102° (ESE) 608 1.1 -14.7°
Drops below altitude 10° 22:33:40 10° 16° (NNE) 1,902 3.6 -15.8°
Enters shadow 22:35:49 - 15° (NNE) 2,781 4.5 -16.3°
